Pagina principale
METAR-TAF:

METAR-TAF

Aeroporti :

Anchorage, Alaska, Stati Uniti

latitudine: 61-11N, longitudine: 149-58W, altezza: 22 m

Osservazione

Il bollettino è stato emesso 1 ora e 7 minuti fa, alle 22:53 UTC
Vento calmo
Temperature 1°C
Umidità 100%
Pressione 994 hPa
Visibilità: 0.4 km
nebbia

METAR: PALH 202253Z 00000KT 1/4SM FG VV003 01/01 A2935 RMK AO2 TWR VIS 1/2 SLP940 T00060006

Ora: 15:00 (00:00 UTC)


TAF: mancante

Osservazioni e previsioni meteorologiche di più di 4000 aeroporti (messaggi METAR e TAF).

Le stazioni disponibili sono rappresentate dai dischi gialli e rossi sulla carta.

Puntare il mouse per vedere il nome della stazione.

Clicca sopra per visualizzare le osservazioni e previsioni meteorologiche.

Per cambiare la mappa : fare clic sui pulsanti verdi con una croce nera per ingrandire, il pulsante verde con un trattino per diminuire, o sulla freccia verde per le mappe adiacenti.


METAR-TAF: